Location: Sternwarte ZA, Rosenfeld-Brittheim
(48.2889°N, 8.6789°E)
Time: 21:31:48
(UTC+01:00)

ISS - Pass Details

Date: 03 March 2021
Orbit: 417 x 422 km, 51.6° (Epoch: 02 March)

Event Time Altitude Azimuth Distance (km) Brightness Sun altitude
Exits shadow 04:55:27 45° 17° (NNE) 581 -2.9 -21.8°
Drops below altitude 10° 04:58:21 10° 69° (ENE) 1,499 0.2 -21.4°
Sets 05:00:30 0° 75° (ENE) 2,364 1.6 -21.0°
